DECAYED

FENGYUN 1C DEB, 30919 (Decayed)

Orbit data source: Space-Track

FENGYUN 1C DEB, 30919 was space debris in SSO originally from a launch on Mon, 10 May 1999 UTC launched from the Taiyaun Space Center, China (TSC). Fengyun 1C debris stems from the Chinese weather satellite Fengyun-1C, which was intentionally destroyed by a Chinese anti-satellite missile in 2007. This event dramatically increased the amount of space debris, with thousands of trackable fragments posing hazards to satellites and human spaceflight. The Fengyun 1C debris cloud has become a focal point in discussions about space sustainability and the need for international regulations to prevent the creation of new debris.

Loading next visibility...
Identifier
30919, 1999-025AZH
Orbit
Decayed
Country
Flag of CNCN / PRC
Related business
Manufacturer
Unknown
Mission
Decayed spacecraft
Bus & Motor
Unknown
Mass
Unknown
Launch date (UTC)
1999-05-10 (27 years ago)
Launch vehicle
Unknown
Launch site
Taiyaun Space Center, China (TSC)
Object type
Payload
Rocket body
Debris
Shape & HBR
Unknown shape, 0.1 m
Radar Cross Section
Small (<0.1 m²)

Expand to show TLE details & history
Last TLE update: 2 months ago

TLE from 2 months ago
0 FENGYUN 1C DEB
1 30919U 99025AZH 25298.49017727  .02975897  00000-0  20689-1 0  9993
2 30919  98.7574 130.8770 0013351 344.7734  15.3120 15.70558699971470
Epoch: 2025-10-25T11:45Z
TLE epoch observation values (Epoch: 2025-10-25T11:45:51.316Z)
Latitude
-0.00005°
Longitude
-79.70679°
Altitude
351.74 km
Speed
7.703 km/s
True Right ascension
08h 43m 30s
True Declination
0° 00' 00"
Sunlit
Object was in daylight at epoch
Visualization orbit readout
Latitude
Unknown
Longitude
Unknown
Altitude
Unknown
Speed
Unknown
Apparent Right ascension
Unknown
Apparent Declination
Unknown
Sunlit
N/A
Visualization observer readout
Local Sidereal Time
21:52:45
Azimuth
Unknown
Elevation
Unknown
Doppler factor
Unknown
Orbital elements
Apogee altitude
363.251 km
Perigee altitude
345.274 km
Semi-major axis
6,732.399 km
Eccentricity
0.00134
Inclination
98.7574°
RAAN
130.877°
Arg. of periapsis
344.7734°
True anomaly
15.35247°
Mean anomaly
15.312°
Eccentric anomaly
15.33223°
Mean motion
3.92906 °/min
Orbital period
91.63 mins
BSTAR
0.020689
Loading maneuver chart data...
Computing Atmospheric mass density...

Documentation

Showing up to 5 results
|